• In Belarus
  • List of Countries
  • For 7 days
  • Water Temperature
  • Satellite Maps
  • Weather Map
  • Weather Widgets
  • user-avatar
    Login

    Hourly Weather Sliven

    Today, 23 October, Tuesday

    Time Temperature Precipitation Wind Pressure Humidity
    00:00 +10°C° 0 mm 1 mps 736 mmHg 67%
    01:00 +10°C° 0 mm 1 mps 736 mmHg 66%
    02:00 +10°C° 0 mm 1 mps 736 mmHg 66%
    03:00 +10°C° 0 mm 1 mps 736 mmHg 66%
    04:00 +9°C° 0 mm 1 mps 735 mmHg 66%
    05:00 +9°C° 0 mm 1 mps 735 mmHg 67%
    06:00 +10°C° 0 mm 1 mps 735 mmHg 64%
    07:00 +10°C° 0 mm 1 mps 735 mmHg 62%
    08:00 +11°C° 0 mm 1 mps 735 mmHg 59%
    09:00 +13°C° 0 mm 1 mps 735 mmHg 53%
    10:00 +14°C° 0 mm 1 mps 735 mmHg 47%
    11:00 +16°C° 0 mm 1 mps 735 mmHg 40%
    12:00 +18°C° 0 mm 1 mps 735 mmHg 38%
    13:00 +19°C° 0 mm 1 mps 734 mmHg 36%
    14:00 +19°C° 0 mm 1 mps 734 mmHg 34%
    15:00 +18°C° 0 mm 1 mps 733 mmHg 37%
    16:00 +16°C° 0 mm 1 mps 733 mmHg 39%
    17:00 +16°C° 0 mm 1 mps 732 mmHg 42%
    18:00 +14°C° 0 mm 1 mps 732 mmHg 45%
    19:00 +13°C° 0 mm 1 mps 732 mmHg 48%
    20:00 +12°C° 0 mm 1 mps 732 mmHg 51%
    21:00 +12°C° 0 mm 1 mps 732 mmHg 53%
    22:00 +12°C° 0 mm 1 mps 731 mmHg 54%
    23:00 +11°C° 0 mm 1 mps 731 mmHg 55%

    Tomorrow, 24 October, Wednesday

    Time Temperature Precipitation Wind Pressure Humidity
    00:00 +10°C° 0 mm 2 mps 731 mmHg 57%
    01:00 +10°C° 0 mm 2 mps 730 mmHg 59%
    02:00 +9°C° 0 mm 2 mps 730 mmHg 61%
    03:00 +9°C° 0 mm 2 mps 729 mmHg 63%
    04:00 +9°C° 0 mm 2 mps 729 mmHg 64%
    05:00 +9°C° 0 mm 2 mps 728 mmHg 65%
    06:00 +10°C° 0 mm 3 mps 728 mmHg 63%
    07:00 +10°C° 0 mm 3 mps 727 mmHg 60%
    08:00 +11°C° 0 mm 3 mps 727 mmHg 58%
    09:00 +13°C° 0 mm 4 mps 727 mmHg 51%
    10:00 +15°C° 0 mm 5 mps 726 mmHg 44%
    11:00 +17°C° 0 mm 6 mps 726 mmHg 37%
    12:00 +18°C° 0 mm 7 mps 725 mmHg 35%
    13:00 +18°C° 0 mm 7 mps 724 mmHg 34%
    14:00 +20°C° 0 mm 8 mps 723 mmHg 33%
    15:00 +20°C° 0 mm 7 mps 723 mmHg 34%
    16:00 +19°C° 0 mm 6 mps 722 mmHg 36%
    17:00 +17°C° 0 mm 5 mps 722 mmHg 38%
    18:00 +15°C° 0.2 mm 6 mps 722 mmHg 44%
    19:00 +14°C° 0.2 mm 7 mps 723 mmHg 50%
    20:00 +11°C° 0.2 mm 8 mps 723 mmHg 57%
    21:00 +10°C° 0.1 mm 8 mps 724 mmHg 53%
    22:00 +9°C° 0.1 mm 7 mps 725 mmHg 50%
    23:00 +8°C° 0.1 mm 6 mps 726 mmHg 46%

    Day after tomorrow, 25 October, Thursday

    Time Temperature Precipitation Wind Pressure Humidity
    00:00 +7°C° 0 mm 5 mps 726 mmHg 48%
    01:00 +6°C° 0 mm 5 mps 727 mmHg 51%
    02:00 +6°C° 0 mm 4 mps 727 mmHg 53%
    03:00 +5°C° 0 mm 5 mps 727 mmHg 53%
    04:00 +5°C° 0 mm 5 mps 727 mmHg 53%
    05:00 +3°C° 0 mm 6 mps 727 mmHg 53%
    06:00 +4°C° 0 mm 6 mps 728 mmHg 50%
    07:00 +4°C° 0 mm 7 mps 728 mmHg 48%
    08:00 +4°C° 0 mm 7 mps 729 mmHg 46%
    09:00 +5°C° 0 mm 7 mps 729 mmHg 42%
    10:00 +6°C° 0 mm 7 mps 730 mmHg 38%
    11:00 +9°C° 0 mm 7 mps 730 mmHg 34%
    12:00 +9°C° 0 mm 7 mps 730 mmHg 32%
    13:00 +10°C° 0 mm 7 mps 730 mmHg 30%
    14:00 +10°C° 0 mm 7 mps 730 mmHg 29%
    15:00 +10°C° 0 mm 6 mps 730 mmHg 30%
    16:00 +9°C° 0 mm 5 mps 730 mmHg 32%
    17:00 +10°C° 0 mm 4 mps 730 mmHg 33%
    18:00 +9°C° 0 mm 3 mps 730 mmHg 35%
    19:00 +8°C° 0 mm 3 mps 730 mmHg 37%
    20:00 +7°C° 0 mm 3 mps 730 mmHg 39%
    21:00 +7°C° 0 mm 3 mps 731 mmHg 41%
    22:00 +7°C° 0 mm 3 mps 731 mmHg 42%
    23:00 +7°C° 0 mm 3 mps 731 mmHg 44%

    26 October, Friday

    Time Temperature Precipitation Wind Pressure Humidity
    00:00 +7°C° 0 mm 3 mps 731 mmHg 48%
    01:00 +7°C° 0 mm 3 mps 730 mmHg 52%
    02:00 +7°C° 0 mm 3 mps 730 mmHg 55%
    03:00 +7°C° 0 mm 3 mps 730 mmHg 58%
    04:00 +7°C° 0 mm 4 mps 730 mmHg 61%
    05:00 +7°C° 0 mm 4 mps 730 mmHg 63%
    06:00 +8°C° 0 mm 3 mps 731 mmHg 63%
    07:00 +9°C° 0 mm 3 mps 731 mmHg 62%
    08:00 +9°C° 0 mm 3 mps 732 mmHg 62%
    09:00 +12°C° 0 mm 4 mps 732 mmHg 56%
    10:00 +14°C° 0 mm 4 mps 733 mmHg 49%
    11:00 +16°C° 0 mm 5 mps 733 mmHg 43%
    12:00 +18°C° 0 mm 4 mps 733 mmHg 41%
    13:00 +18°C° 0 mm 4 mps 733 mmHg 39%
    14:00 +19°C° 0 mm 4 mps 733 mmHg 37%
    15:00 +18°C° 0 mm 3 mps 733 mmHg 40%
    16:00 +17°C° 0 mm 2 mps 733 mmHg 42%
    17:00 +16°C° 0 mm 1 mps 733 mmHg 45%
    18:00 +15°C° 0 mm 1 mps 733 mmHg 48%
    19:00 +14°C° 0 mm 1 mps 733 mmHg 50%
    20:00 +13°C° 0 mm 1 mps 733 mmHg 53%
    21:00 +13°C° 0 mm 2 mps 734 mmHg 54%
    22:00 +12°C° 0 mm 2 mps 734 mmHg 55%
    23:00 +12°C° 0 mm 2 mps 734 mmHg 57%

    27 October, Saturday

    Time Temperature Precipitation Wind Pressure Humidity
    00:00 +10°C° 0 mm 2 mps 734 mmHg 58%
    01:00 +10°C° 0 mm 2 mps 734 mmHg 59%
    02:00 +10°C° 0 mm 2 mps 734 mmHg 60%
    03:00 +10°C° 0 mm 2 mps 733 mmHg 63%
    04:00 +9°C° 0 mm 2 mps 733 mmHg 65%
    05:00 +9°C° 0 mm 2 mps 733 mmHg 67%
    06:00 +10°C° 0 mm 2 mps 733 mmHg 67%
    07:00 +10°C° 0 mm 2 mps 733 mmHg 67%
    08:00 +12°C° 0 mm 2 mps 733 mmHg 66%
    09:00 +13°C° 0 mm 3 mps 733 mmHg 59%
    10:00 +16°C° 0 mm 3 mps 733 mmHg 52%
    11:00 +19°C° 0 mm 4 mps 733 mmHg 45%
    12:00 +20°C° 0 mm 4 mps 733 mmHg 43%
    13:00 +21°C° 0 mm 4 mps 733 mmHg 41%
    14:00 +22°C° 0 mm 4 mps 732 mmHg 39%
    15:00 +21°C° 0 mm 4 mps 732 mmHg 44%
    16:00 +20°C° 0 mm 4 mps 732 mmHg 50%
    17:00 +19°C° 0 mm 4 mps 731 mmHg 55%
    18:00 +18°C° 0 mm 4 mps 731 mmHg 63%
    19:00 +17°C° 0 mm 4 mps 731 mmHg 71%
    20:00 +15°C° 0 mm 4 mps 731 mmHg 80%
    21:00 +14°C° 0 mm 4 mps 731 mmHg 82%
    22:00 +14°C° 0 mm 4 mps 731 mmHg 85%
    23:00 +14°C° 0 mm 4 mps 731 mmHg 87%

    28 October, Sunday

    Time Temperature Precipitation Wind Pressure Humidity
    00:00 +14°C° 0 mm 4 mps 731 mmHg 87%
    01:00 +14°C° 0 mm 4 mps 731 mmHg 86%
    02:00 +14°C° 0 mm 4 mps 731 mmHg 86%
    03:00 +14°C° 0 mm 4 mps 730 mmHg 86%
    04:00 +14°C° 0 mm 5 mps 730 mmHg 85%
    05:00 +14°C° 0 mm 5 mps 730 mmHg 85%
    06:00 +14°C° 0 mm 5 mps 731 mmHg 83%
    07:00 +15°C° 0 mm 5 mps 731 mmHg 81%
    08:00 +15°C° 0 mm 6 mps 731 mmHg 79%
    09:00 +17°C° 0 mm 6 mps 731 mmHg 71%
    10:00 +20°C° 0 mm 7 mps 732 mmHg 62%
    11:00 +22°C° 0 mm 8 mps 732 mmHg 54%
    12:00 +22°C° 0 mm 8 mps 732 mmHg 51%
    13:00 +23°C° 0 mm 8 mps 731 mmHg 49%
    14:00 +23°C° 0 mm 8 mps 731 mmHg 47%
    15:00 +22°C° 0 mm 7 mps 731 mmHg 51%
    16:00 +21°C° 0 mm 7 mps 731 mmHg 55%
    17:00 +20°C° 0 mm 6 mps 730 mmHg 60%
    18:00 +19°C° 0 mm 6 mps 731 mmHg 65%
    19:00 +17°C° 0 mm 6 mps 731 mmHg 70%
    20:00 +16°C° 0 mm 5 mps 731 mmHg 75%
    21:00 +15°C° 0 mm 5 mps 731 mmHg 78%
    22:00 +15°C° 0 mm 5 mps 731 mmHg 80%
    23:00 +15°C° 0 mm 5 mps 731 mmHg 82%

    29 October, Monday

    Time Temperature Precipitation Wind Pressure Humidity
    00:00 +14°C° 0 mm 4 mps 731 mmHg 83%
    01:00 +14°C° 0 mm 4 mps 731 mmHg 85%
    02:00 +14°C° 0 mm 4 mps 731 mmHg 86%
    03:00 +14°C° 0 mm 4 mps 731 mmHg 87%
    04:00 +14°C° 0 mm 4 mps 730 mmHg 87%
    05:00 +13°C° 0 mm 4 mps 730 mmHg 88%
    06:00 +14°C° 0 mm 5 mps 730 mmHg 86%
    07:00 +14°C° 0 mm 5 mps 731 mmHg 83%
    08:00 +15°C° 0 mm 5 mps 731 mmHg 81%
    09:00 +16°C° 0 mm 6 mps 731 mmHg 73%
    10:00 +18°C° 0 mm 7 mps 731 mmHg 65%
    11:00 +21°C° 0 mm 8 mps 731 mmHg 57%
    12:00 +21°C° 0 mm 8 mps 731 mmHg 56%
    13:00 +21°C° 0 mm 8 mps 730 mmHg 54%
    14:00 +21°C° 0 mm 8 mps 730 mmHg 53%
    15:00 +21°C° 0 mm 7 mps 730 mmHg 55%
    16:00 +20°C° 0 mm 7 mps 730 mmHg 57%
    17:00 +19°C° 0 mm 6 mps 730 mmHg 59%
    18:00 +19°C° 0 mm 6 mps 730 mmHg 62%
    19:00 +17°C° 0 mm 6 mps 730 mmHg 65%
    20:00 +17°C° 0 mm 6 mps 730 mmHg 69%
    21:00 +16°C° 0 mm 6 mps 730 mmHg 71%
    22:00 +16°C° 0 mm 5 mps 730 mmHg 73%
    23:00 +16°C° 0 mm 5 mps 730 mmHg 76%
    Show more